TimePST,TemperatureF,Dew PointF,Humidity,Sea Level PressureIn,VisibilityMPH,Wind Direction,Wind SpeedMPH,Gust SpeedMPH,PrecipitationIn,Events,Conditions,WindDirDegrees,DateUTC
12:56 AM,64.9,37.9,37,29.96,10.0,WSW,9.2,-,N/A,,Mostly Cloudy,250,2012-11-17 08:56:00
1:56 AM,64.0,39.9,41,29.96,10.0,SSW,4.6,-,N/A,,Clear,210,2012-11-17 09:56:00
2:56 AM,61.0,37.0,41,29.94,10.0,Calm,Calm,-,N/A,,Mostly Cloudy,0,2012-11-17 10:56:00
3:56 AM,60.1,39.9,47,29.94,10.0,Calm,Calm,-,N/A,,Mostly Cloudy,0,2012-11-17 11:56:00
4:56 AM,57.9,39.0,49,29.96,10.0,WNW,3.5,-,N/A,,Scattered Clouds,290,2012-11-17 12:56:00
5:56 AM,57.0,39.9,53,29.97,10.0,West,5.8,-,N/A,,Scattered Clouds,280,2012-11-17 13:56:00
6:56 AM,60.1,39.0,46,29.99,10.0,Calm,Calm,-,N/A,,Clear,0,2012-11-17 14:56:00
7:56 AM,66.0,39.0,37,29.99,10.0,Calm,Calm,-,N/A,,Clear,0,2012-11-17 15:56:00
9:56 AM,71.1,37.9,30,29.99,10.0,Calm,Calm,-,N/A,,Clear,0,2012-11-17 17:56:00
10:56 AM,75.0,41.0,29,29.97,10.0,Calm,Calm,-,N/A,,Clear,0,2012-11-17 18:56:00
11:56 AM,78.1,42.1,28,29.94,10.0,South,10.4,-,N/A,,Scattered Clouds,180,2012-11-17 19:56:00
12:56 PM,78.1,42.1,28,29.91,10.0,SSW,6.9,-,N/A,,Clear,200,2012-11-17 20:56:00
1:56 PM,78.1,41.0,27,29.90,10.0,South,10.4,-,N/A,,Clear,190,2012-11-17 21:56:00
2:56 PM,78.1,39.9,25,29.90,10.0,SW,10.4,-,N/A,,Clear,220,2012-11-17 22:56:00
3:56 PM,75.9,41.0,29,29.91,10.0,WSW,9.2,-,N/A,,Clear,240,2012-11-17 23:56:00
4:56 PM,73.0,41.0,31,29.91,10.0,WSW,6.9,-,N/A,,Clear,250,2012-11-18 00:56:00
5:56 PM,69.1,41.0,36,29.94,10.0,WSW,5.8,-,N/A,,Clear,240,2012-11-18 01:56:00
6:56 PM,68.0,39.9,36,29.93,10.0,SW,8.1,-,N/A,,Clear,230,2012-11-18 02:56:00
7:56 PM,66.0,39.9,38,29.94,10.0,WSW,5.8,-,N/A,,Clear,250,2012-11-18 03:56:00
8:56 PM,64.0,39.9,41,29.95,10.0,West,6.9,-,N/A,,Clear,260,2012-11-18 04:56:00
9:56 PM,63.0,39.9,43,29.96,10.0,WSW,6.9,-,N/A,,Clear,250,2012-11-18 05:56:00
10:56 PM,63.0,42.1,46,29.96,10.0,West,6.9,-,N/A,,Clear,260,2012-11-18 06:56:00
11:56 PM,62.1,42.1,48,29.97,10.0,WNW,3.5,-,N/A,,Clear,300,2012-11-18 07:56:00